Versailles, OH

12:01 PM EST on February 09, 2016 (GMT -0500)
Darke County

Weather History for KVES - January, 2013

Change the Weather History Date:

Tuesday, January 29, 2013

  Actual Average (KDAY) Record (KDAY)
Temperature  
Mean Temperature 52 °F 28 °F  
Max Temperature 60 °F 35 °F 66 °F (1914)
Min Temperature 46 °F 21 °F -10 °F (1977)
Degree Days  
Heating Degree Days 12 37  
Month to date heating degree days 1090  
Since 1 July heating degree days 3249  
Cooling Degree Days 0 0  
Month to date cooling degree days 0  
Year to date cooling degree days 0  
Growing Degree Days 2 (Base 50)    
Moisture  
Dew Point 52 °F    
Average Humidity 92    
Maximum Humidity 100    
Minimum Humidity 82    
Precipitation  
Precipitation 0.00 in 0.08 in 1.37 in (1969)
Month to date precipitation 2.55  
Year to date precipitation 2.55  
Snow  
Snow 0.00 in 0.30 in 3.50 in (1990)
Month to date snowfall 7.4  
Since 1 July snowfall 12.9  
Snow Depth -    
Sea Level Pressure  
Sea Level Pressure 29.83 in    
Wind  
Wind Speed 11 mph (SSW)    
Max Wind Speed 22 mph    
Max Gust Speed 32 mph    
Visibility 7 miles    
Events Fog , Rain    
T = Trace of Precipitation, MM = Missing Value Source: NWS Daily Summary

Daily Weather History Graph

Daily Weather History Graph

Search for Another Location

Airport or City:

Trip Planner

Search our weather history database for the weather conditions in past years. The results will help you decide how hot, cold, wet, or windy it might be!

Date:

Astronomy

Jan. 29, 2013 Rise Set
Actual Time 7:49 AM EST 5:53 PM EST
Civil Twilight 7:20 AM EST 6:22 PM EST
Nautical Twilight 6:47 AM EST 6:55 PM EST
Astronomical Twilight 6:15 AM EST 7:27 PM EST
Moon 8:49 PM EST (1/29) 8:45 AM EST (1/29)
Length of Visible Light 11h 01m
Length of Day
10h 04m
Waning Gibbous, 94% of the Moon is Illuminated
Jan 29
Waning Gibbous
Feb 3
Last Quarter
Feb 10
New
Feb 17
First Quarter
Feb 25
Full

Hourly Weather History & Observations

Time (EST) Temp. Windchill Dew Point Humidity Pressure Visibility Wind Dir Wind Speed Gust Speed Precip Events Conditions
12:15 AM 46.4 °F 43.5 °F 46.4 °F 100% 30.01 in 0.2 mi South 5.8 mph - N/A Fog Fog
12:35 AM 46.4 °F 42.9 °F 46.4 °F 100% 30.01 in 0.2 mi SSW 6.9 mph - N/A Fog Fog
12:55 AM 46.4 °F 42.9 °F 46.4 °F 100% 30.00 in 0.2 mi SSW 6.9 mph - N/A Fog Fog
1:15 AM 46.4 °F 42.9 °F 46.4 °F 100% 29.99 in 0.2 mi SSW 6.9 mph - N/A Fog Fog
1:35 AM 48.2 °F - 48.2 °F 100% 29.99 in 0.2 mi South 5.8 mph - N/A Fog Fog
1:55 AM 48.2 °F - 48.2 °F 100% 29.98 in 0.2 mi SSW 9.2 mph - N/A Fog Fog
2:15 AM 48.2 °F - 48.2 °F 100% 29.98 in 0.2 mi South 8.1 mph - N/A Fog Fog
2:35 AM 50.0 °F - 50.0 °F 100% 29.98 in 1.2 mi SSW 6.9 mph - N/A   Overcast
2:55 AM 50.0 °F - 50.0 °F 100% 29.98 in 2.0 mi SSW 8.1 mph - N/A   Overcast
3:15 AM 50.0 °F - 50.0 °F 100% 29.97 in 2.5 mi South 8.1 mph - N/A   Overcast
3:35 AM 48.2 °F - 48.2 °F 100% 29.96 in 2.0 mi South 6.9 mph - N/A   Overcast
3:55 AM 46.4 °F 42.4 °F 46.4 °F 100% 29.97 in 2.0 mi South 8.1 mph - N/A   Mostly Cloudy
4:15 AM 46.4 °F 42.4 °F 46.4 °F 100% 29.95 in 1.8 mi South 8.1 mph - N/A   Overcast
4:35 AM 46.4 °F 41.9 °F 46.4 °F 100% 29.95 in 1.5 mi South 9.2 mph - N/A   Overcast
4:55 AM 46.4 °F 42.4 °F 46.4 °F 100% 29.94 in 1.0 mi SSW 8.1 mph - N/A   Overcast
5:15 AM 46.4 °F 41.5 °F 46.4 °F 100% 29.94 in 0.8 mi South 10.4 mph - N/A   Overcast
5:35 AM 46.4 °F 41.5 °F 46.4 °F 100% 29.93 in 1.0 mi SSW 10.4 mph - N/A   Overcast
5:55 AM 46.4 °F 41.1 °F 46.4 °F 100% 29.93 in 1.8 mi SSW 11.5 mph - N/A   Overcast
6:15 AM 46.4 °F 41.5 °F 46.4 °F 100% 29.93 in 3.0 mi SSW 10.4 mph 17.3 mph N/A   Overcast
6:35 AM 46.4 °F 42.4 °F 46.4 °F 100% 29.92 in 4.0 mi South 8.1 mph - N/A   Overcast
6:55 AM 48.2 °F - 48.2 °F 100% 29.93 in 5.0 mi SSW 8.1 mph - N/A   Overcast
7:15 AM 50.0 °F - 50.0 °F 100% 29.92 in 5.0 mi SSW 8.1 mph - N/A   Overcast
7:35 AM 51.8 °F - 51.8 °F 100% 29.91 in 7.0 mi SSW 12.7 mph 19.6 mph N/A   Overcast
7:55 AM 51.8 °F - 51.8 °F 100% 29.90 in 7.0 mi SSW 16.1 mph 25.3 mph N/A   Overcast
8:15 AM 51.8 °F - 51.8 °F 100% 29.90 in 7.0 mi SSW 16.1 mph 23.0 mph N/A   Overcast
8:35 AM 51.8 °F - 51.8 °F 100% 29.90 in 7.0 mi SSW 15.0 mph - N/A   Overcast
8:55 AM 51.8 °F - 51.8 °F 100% 29.90 in 7.0 mi SSW 17.3 mph 25.3 mph N/A   Overcast
9:15 AM 51.8 °F - 51.8 °F 100% 29.89 in 7.0 mi SSW 20.7 mph 27.6 mph N/A   Overcast
9:35 AM 53.6 °F - 51.8 °F 94% 29.88 in 7.0 mi SSW 16.1 mph 27.6 mph N/A   Overcast
9:55 AM 53.6 °F - 51.8 °F 94% 29.89 in 7.0 mi SSW 21.9 mph 29.9 mph N/A   Overcast
10:15 AM 53.6 °F - 53.6 °F 100% 29.88 in 7.0 mi SSW 20.7 mph 32.2 mph N/A   Overcast
10:35 AM 55.4 °F - 53.6 °F 94% 29.88 in 7.0 mi SSW 13.8 mph 28.8 mph N/A   Overcast
10:55 AM 55.4 °F - 53.6 °F 94% 29.88 in 7.0 mi SSW 17.3 mph 24.2 mph N/A   Overcast
11:15 AM 55.4 °F - 53.6 °F 94% 29.88 in 7.0 mi SSW 18.4 mph 31.1 mph N/A Rain Light Rain
11:35 AM 55.4 °F - 53.6 °F 94% 29.88 in 7.0 mi SSW 15.0 mph 26.5 mph N/A   Overcast
11:55 AM 55.4 °F - 53.6 °F 94% 29.88 in 7.0 mi SSW 13.8 mph 25.3 mph N/A   Overcast
12:15 PM 55.4 °F - 53.6 °F 94% 29.86 in 7.0 mi SSW 13.8 mph 23.0 mph N/A   Overcast
12:35 PM 57.2 °F - 55.4 °F 94% 29.86 in 7.0 mi SSW 15.0 mph 23.0 mph N/A   Overcast
12:55 PM 59.0 °F - 55.4 °F 88% 29.85 in 7.0 mi SSW 16.1 mph 20.7 mph N/A   Overcast
1:15 PM 59.0 °F - 55.4 °F 88% 29.85 in 10.0 mi SSW 16.1 mph 23.0 mph N/A   Overcast
1:35 PM 59.0 °F - 55.4 °F 88% 29.84 in 10.0 mi SSW 12.7 mph 24.2 mph N/A   Overcast
1:55 PM 59.0 °F - 55.4 °F 88% 29.83 in 10.0 mi SSW 15.0 mph 21.9 mph N/A   Overcast
2:15 PM 59.0 °F - 55.4 °F 88% 29.82 in 10.0 mi SSW 18.4 mph 24.2 mph N/A   Overcast
2:35 PM 57.2 °F - 53.6 °F 88% 29.81 in 10.0 mi SSW 18.4 mph 26.5 mph N/A   Overcast
2:55 PM 59.0 °F - 53.6 °F 82% 29.81 in 10.0 mi SSW 16.1 mph 28.8 mph N/A   Overcast
3:15 PM 59.0 °F - 53.6 °F 82% 29.80 in 10.0 mi SSW 16.1 mph 28.8 mph N/A   Overcast
3:35 PM 59.0 °F - 53.6 °F 82% 29.80 in 10.0 mi SSW 13.8 mph 26.5 mph N/A   Overcast
3:55 PM 59.0 °F - 53.6 °F 82% 29.79 in 10.0 mi SSW 15.0 mph 23.0 mph N/A   Overcast
4:15 PM 59.0 °F - 53.6 °F 82% 29.78 in 10.0 mi South 12.7 mph 21.9 mph N/A   Overcast
4:35 PM 59.0 °F - 53.6 °F 82% 29.78 in 10.0 mi South 13.8 mph 25.3 mph N/A   Overcast
4:55 PM 59.0 °F - 53.6 °F 82% 29.77 in 10.0 mi South 11.5 mph 23.0 mph N/A   Overcast
5:15 PM 59.0 °F - 53.6 °F 82% 29.76 in 10.0 mi South 15.0 mph 25.3 mph N/A   Overcast
5:35 PM 59.0 °F - 53.6 °F 82% 29.76 in 10.0 mi SSW 11.5 mph 19.6 mph N/A   Overcast
5:55 PM 57.2 °F - 53.6 °F 88% 29.76 in 10.0 mi SSW 11.5 mph 21.9 mph N/A   Overcast
6:15 PM 59.0 °F - 53.6 °F 82% 29.75 in 10.0 mi South 11.5 mph 18.4 mph N/A   Overcast
6:35 PM 59.0 °F - 53.6 °F 82% 29.73 in 10.0 mi South 11.5 mph 20.7 mph N/A   Overcast
6:55 PM 59.0 °F - 53.6 °F 82% 29.73 in 10.0 mi South 13.8 mph 20.7 mph N/A   Overcast
7:15 PM 59.0 °F - 53.6 °F 82% 29.73 in 10.0 mi South 11.5 mph 19.6 mph N/A   Overcast
7:35 PM 59.0 °F - 53.6 °F 82% 29.72 in 10.0 mi South 13.8 mph 20.7 mph N/A   Overcast
7:55 PM 59.0 °F - 53.6 °F 82% 29.71 in 10.0 mi South 10.4 mph 18.4 mph N/A   Overcast
8:15 PM 57.2 °F - 53.6 °F 88% 29.70 in 10.0 mi South 10.4 mph 16.1 mph N/A   Overcast
8:55 PM 57.2 °F - 53.6 °F 88% 29.66 in 10.0 mi South 15.0 mph 20.7 mph N/A   Overcast
9:15 PM 57.2 °F - 53.6 °F 88% 29.64 in 10.0 mi South 13.8 mph 23.0 mph N/A   Overcast
9:35 PM 59.0 °F - 53.6 °F 82% 29.63 in 10.0 mi South 15.0 mph 23.0 mph N/A   Mostly Cloudy
9:55 PM 59.0 °F - 55.4 °F 88% 29.63 in 10.0 mi South 13.8 mph 19.6 mph N/A   Overcast
10:15 PM 59.0 °F - 55.4 °F 88% 29.62 in 10.0 mi South 13.8 mph 19.6 mph N/A   Overcast
10:35 PM 59.0 °F - 55.4 °F 88% 29.61 in 10.0 mi South 16.1 mph 23.0 mph N/A   Overcast
10:55 PM 59.0 °F - 55.4 °F 88% 29.59 in 10.0 mi South 13.8 mph 23.0 mph N/A   Overcast
11:15 PM 59.0 °F - 55.4 °F 88% 29.55 in 10.0 mi South 18.4 mph 26.5 mph N/A   Overcast
11:35 PM 59.0 °F - 55.4 °F 88% 29.53 in 10.0 mi South 19.6 mph 25.3 mph N/A   Mostly Cloudy
11:55 PM 60.8 °F - 55.4 °F 82% 29.53 in 10.0 mi South 17.3 mph 29.9 mph N/A   Scattered Clouds